#timestamp,LO_Frequency,Hit,StdDev 
1672110015.3,286046999.4,N
1672110035.1,286046999.4,N
1672110055.8,286047000.5,N
1672110075.7,286047000.4,N
1672110095.5,286047001.3,N
1672110115.4,286047004.1,N
1672110135.2,286047000.2,N
1672110155.0,286047002.7,N
1672110155.9,286047002.7,N
1672110175.8,286047002.4,N
1672110195.6,286047000.4,N
1672110215.5,286047002.7,N
1672110235.3,286047000.2,N
1672110255.1,286047002.6,N
1672110275.9,286047000.1,N
1672110295.7,286047001.5,N
1672110315.5,286047004.0,N
1672110335.4,286047002.3,N
1672110355.2,286047002.2,N
1672110375.1,286047001.9,N
1672110376.0,286047001.9,N
1672110395.8,286047002.1,N
1672110415.6,286047003.7,N
1672110435.5,286047004.3,N
1672110455.3,286047002.3,N
1672110475.1,286047002.8,N
1672110495.9,286047001.6,N
1672110515.7,286047001.5,N
1672110535.6,286047002.2,N
1672110555.4,286047001.3,N
1672110575.2,286047000.6,N
1672110595.1,286047000.9,N
1672110596.0,286047000.9,N
1672110615.8,286047000.0,N
1672110635.6,286047000.2,N
1672110655.5,286047002.8,N
1672110675.3,286047000.4,N
1672110695.2,286046998.4,N
1672110715.9,286047001.1,N
1672110735.7,286047000.6,N
1672110755.6,286047002.8,N
1672110775.4,286046999.5,N
1672110795.2,286046997.6,N
1672110815.1,286046999.3,N
1672110816.0,286046999.3,N
1672110835.8,286046998.9,N
1672110855.7,286047001.2,N
1672110875.5,286046999.7,N
1672110895.3,286047000.6,N
1672110915.2,286047001.2,N
1672110935.0,286047001.0,N
1672110935.9,286047001.0,N
1672110955.7,286047002.1,N
1672110975.6,286047001.6,N
1672110995.4,286047002.6,N
1672111015.3,286047002.2,N
1672111035.1,286047002.1,N
1672111036.0,286047002.1,N
1672111055.8,286047002.4,N
1672111075.7,286047001.0,N
1672111095.5,286046999.9,N
1672111115.4,286047003.6,N
1672111135.2,286047000.9,N
1672111155.0,286046998.5,N
1672111155.9,286046998.5,N
1672111175.8,286047002.4,N
1672111195.6,286047000.0,N
1672111215.5,286047001.9,N
1672111235.3,286047001.8,N
1672111255.1,286047001.6,N
1672111275.9,286047004.2,N
1672111295.7,286047002.5,N
1672111315.5,286047000.1,N
1672111335.4,286046998.4,N
1672111355.2,286047002.8,N
1672111375.0,286047001.4,N
1672111376.0,286047001.4,N
1672111395.8,286047004.4,Y
1672111415.6,286047002.6,P
1672111435.5,286047001.4,N
1672111455.3,286047004.8,P
1672111475.1,286047002.4,N
1672111495.9,286046996.6,N
1672111515.7,286046997.2,N
1672111535.6,286046999.1,N
1672111555.4,286047001.0,N
1672111575.2,286047000.3,N
1672111595.1,286047002.4,N
1672111596.0,286047002.4,N
1672111615.8,286047002.3,N
1672111635.6,286047001.7,N
1672111655.5,286047002.8,N
1672111675.3,286047002.6,N
1672111695.2,286047001.0,N
1672111715.9,286047002.4,N
1672111735.7,286046999.8,N
1672111755.6,286047002.7,N
1672111775.4,286046998.1,N
1672111795.3,286047001.0,N
1672111815.1,286047000.1,N
1672111835.9,286046999.7,N
1672111855.7,286047001.9,N
1672111875.5,286047002.6,N
1672111895.4,286046998.8,N
1672111915.2,286046997.9,N
1672111935.0,286046997.4,N
1672111936.0,286046997.4,N
1672111955.8,286046998.4,N
1672111975.6,286046998.2,N
1672111995.5,286047000.5,N
1672112015.3,286047001.7,N
1672112035.1,286047000.1,N
1672112055.9,286047002.2,N
1672112075.7,286047003.7,N
1672112095.6,286047004.4,N
1672112115.4,286047003.1,N
1672112135.2,286047002.1,N
1672112155.1,286047001.8,N
1672112156.0,286047001.8,N
1672112175.8,286047001.3,N
1672112195.7,286047003.4,N
1672112215.5,286047003.3,N
1672112235.3,286047003.2,N
1672112255.2,286047005.5,N
1672112275.0,286047005.9,N
1672112275.9,286047005.9,N
1672112295.8,286047003.0,N
1672112315.6,286047007.4,Y
1672112335.4,286047001.3,P
1672112355.3,286047002.7,P
1672112375.1,286047000.9,N
1672112395.9,286047004.2,Y
1672112415.7,286047000.0,P
1672112435.5,286047000.9,N
1672112455.4,286047000.4,N
1672112475.2,286047000.9,N
1672112495.1,286047000.6,N
1672112496.0,286047000.6,N
1672112515.8,286047000.2,N
1672112535.6,286046998.6,Y
1672112555.5,286046999.3,P
1672112575.3,286046999.6,N
1672112595.1,286046996.6,P
1672112615.9,286046997.0,N
1672112635.7,286047000.8,N
1672112655.6,286047000.8,N
1672112675.4,286047000.9,N
1672112695.2,286046998.9,N
1672112715.1,286046998.1,N
1672112716.0,286046998.1,N
1672112735.8,286047001.2,N
1672112755.6,286047002.7,N
1672112775.5,286047001.1,N
1672112795.3,286046999.6,N
1672112815.2,286046996.8,N
1672112835.9,286046997.3,N
1672112855.7,286046999.6,N
1672112875.6,286046998.1,N
1672112895.4,286047000.8,N
1672112915.3,286047000.7,N
1672112935.1,286047001.0,N
1672112955.8,286047000.4,N
1672112975.7,286046998.5,N
1672112995.5,286046998.2,N
1672113015.4,286047000.4,N
1672113035.2,286047000.5,N
1672113055.0,286046999.9,N
1672113055.9,286046999.9,N
1672113075.8,286047000.9,N
1672113095.6,286047000.4,N
1672113115.4,286047000.4,N
1672113135.3,286047000.7,N
1672113155.1,286047000.9,N
1672113175.9,286047000.9,N
1672113195.7,286046998.5,N
1672113215.5,286046997.0,N
1672113235.4,286046999.2,N
1672113255.2,286046999.0,N
1672113275.0,286046999.2,N
1672113275.9,286046999.2,N
1672113295.8,286046996.5,N
1672113315.6,286046996.7,N
1672113335.5,286046999.0,N
1672113355.3,286046996.6,N
1672113375.1,286046998.8,N
1672113395.9,286046999.7,N
1672113415.7,286047000.2,N
1672113435.5,286046998.3,N
1672113455.4,286047000.6,N
1672113475.2,286046998.1,N
1672113495.0,286046998.1,N
1672113496.0,286046998.1,N
1672113515.8,286046998.7,N
1672113535.6,286046998.5,N
1672113555.5,286046996.6,N
1672113575.3,286046996.6,N
1672113595.1,286046996.8,N
